When you browse on this site, cookies collect data to enhance your experience and personalize the content and advertising you see.
Visit our Privacy Policy to learn more. By continuing to use the site, you agree to this use of cookies and data.
  • En España
  • Lista de países
  • Para 7 días
  • Temperatura del agua
  • El tiempo en el mapa
  • Informadores
  • user-avatar
    Iniciar sesión

    Tiempo cada hora Pinsk

    Hoy, 6 Abril, Lunes

    Tiempo Temperatura Precipitaciones Viento Presión Humedad
    00:00 +4°C° 0 mm 0 mps 763 mmHg 53%
    01:00 +3°C° 0 mm 0 mps 764 mmHg 54%
    02:00 +4°C° 0 mm 1 mps 764 mmHg 57%
    03:00 +4°C° 0 mm 1 mps 764 mmHg 59%
    04:00 +3°C° 0 mm 1 mps 764 mmHg 60%
    05:00 +3°C° 0 mm 1 mps 764 mmHg 62%
    06:00 +4°C° 0 mm 1 mps 764 mmHg 60%
    07:00 +5°C° 0 mm 1 mps 764 mmHg 57%
    08:00 +6°C° 0 mm 2 mps 764 mmHg 54%
    09:00 +7°C° 0 mm 2 mps 764 mmHg 49%
    10:00 +9°C° 0 mm 2 mps 764 mmHg 43%
    11:00 +11°C° 0 mm 3 mps 764 mmHg 38%
    12:00 +13°C° 0 mm 2 mps 764 mmHg 35%
    13:00 +14°C° 0 mm 2 mps 764 mmHg 33%
    14:00 +14°C° 0 mm 2 mps 764 mmHg 30%
    15:00 +14°C° 0 mm 2 mps 764 mmHg 31%
    16:00 +14°C° 0 mm 2 mps 763 mmHg 32%
    17:00 +14°C° 0 mm 2 mps 763 mmHg 33%
    18:00 +12°C° 0 mm 2 mps 763 mmHg 38%
    19:00 +10°C° 0 mm 2 mps 763 mmHg 42%
    20:00 +8°C° 0 mm 2 mps 763 mmHg 47%
    21:00 +7°C° 0 mm 2 mps 763 mmHg 48%
    22:00 +7°C° 0 mm 2 mps 763 mmHg 49%
    23:00 +6°C° 0 mm 2 mps 763 mmHg 51%

    Mañana, 7 Abril, Martes

    Tiempo Temperatura Precipitaciones Viento Presión Humedad
    00:00 +6°C° 0 mm 2 mps 763 mmHg 52%
    01:00 +5°C° 0 mm 2 mps 763 mmHg 54%
    02:00 +5°C° 0 mm 2 mps 763 mmHg 56%
    03:00 +4°C° 0 mm 2 mps 763 mmHg 57%
    04:00 +4°C° 0 mm 2 mps 763 mmHg 59%
    05:00 +4°C° 0 mm 2 mps 763 mmHg 61%
    06:00 +5°C° 0 mm 2 mps 763 mmHg 59%
    07:00 +6°C° 0 mm 2 mps 763 mmHg 58%
    08:00 +7°C° 0 mm 2 mps 763 mmHg 56%
    09:00 +9°C° 0 mm 3 mps 763 mmHg 52%
    10:00 +11°C° 0 mm 3 mps 763 mmHg 47%
    11:00 +14°C° 0 mm 3 mps 763 mmHg 43%
    12:00 +16°C° 0 mm 3 mps 763 mmHg 41%
    13:00 +17°C° 0 mm 3 mps 762 mmHg 39%
    14:00 +18°C° 0 mm 3 mps 762 mmHg 37%
    15:00 +17°C° 0 mm 3 mps 762 mmHg 38%
    16:00 +17°C° 0 mm 3 mps 761 mmHg 40%
    17:00 +17°C° 0 mm 3 mps 761 mmHg 41%
    18:00 +14°C° 0 mm 3 mps 761 mmHg 46%
    19:00 +12°C° 0 mm 3 mps 760 mmHg 51%
    20:00 +10°C° 0 mm 2 mps 760 mmHg 56%
    21:00 +10°C° 0 mm 3 mps 760 mmHg 58%
    22:00 +9°C° 0 mm 3 mps 760 mmHg 60%
    23:00 +8°C° 0 mm 3 mps 760 mmHg 61%

    Pasado mañana, 8 Abril, Miércoles

    Tiempo Temperatura Precipitaciones Viento Presión Humedad
    00:00 +8°C° 0 mm 3 mps 760 mmHg 62%
    01:00 +8°C° 0 mm 3 mps 760 mmHg 64%
    02:00 +7°C° 0 mm 3 mps 759 mmHg 65%
    03:00 +7°C° 0 mm 3 mps 759 mmHg 68%
    04:00 +7°C° 0 mm 3 mps 759 mmHg 71%
    05:00 +6°C° 0 mm 2 mps 759 mmHg 74%
    06:00 +7°C° 0 mm 2 mps 759 mmHg 73%
    07:00 +9°C° 0 mm 2 mps 759 mmHg 72%
    08:00 +10°C° 0 mm 2 mps 759 mmHg 71%
    09:00 +12°C° 0 mm 2 mps 759 mmHg 67%
    10:00 +14°C° 0 mm 2 mps 759 mmHg 64%
    11:00 +16°C° 0 mm 2 mps 759 mmHg 60%
    12:00 +17°C° 0 mm 2 mps 758 mmHg 56%
    13:00 +18°C° 0 mm 3 mps 758 mmHg 51%
    14:00 +18°C° 0 mm 3 mps 757 mmHg 47%
    15:00 +18°C° 0 mm 3 mps 757 mmHg 46%
    16:00 +18°C° 0 mm 3 mps 757 mmHg 44%
    17:00 +18°C° 0 mm 2 mps 756 mmHg 43%
    18:00 +16°C° 0 mm 2 mps 756 mmHg 46%
    19:00 +14°C° 0 mm 1 mps 756 mmHg 50%
    20:00 +12°C° 0 mm 1 mps 755 mmHg 53%
    21:00 +12°C° 0 mm 1 mps 755 mmHg 54%
    22:00 +11°C° 0 mm 1 mps 755 mmHg 55%
    23:00 +10°C° 0 mm 0 mps 755 mmHg 56%

    9 Abril, Jueves

    Tiempo Temperatura Precipitaciones Viento Presión Humedad
    00:00 +10°C° 0 mm 1 mps 755 mmHg 61%
    01:00 +10°C° 0 mm 1 mps 755 mmHg 66%
    02:00 +9°C° 0 mm 2 mps 754 mmHg 71%
    03:00 +9°C° 0 mm 2 mps 754 mmHg 74%
    04:00 +9°C° 0 mm 2 mps 754 mmHg 77%
    05:00 +10°C° 0 mm 2 mps 753 mmHg 80%
    06:00 +11°C° 0 mm 3 mps 753 mmHg 77%
    07:00 +11°C° 0 mm 3 mps 753 mmHg 73%
    08:00 +12°C° 0 mm 3 mps 752 mmHg 69%
    09:00 +14°C° 0 mm 4 mps 752 mmHg 60%
    10:00 +17°C° 0 mm 4 mps 752 mmHg 52%
    11:00 +17°C° 0 mm 5 mps 752 mmHg 43%
    12:00 +19°C° 0 mm 5 mps 751 mmHg 40%
    13:00 +19°C° 0 mm 5 mps 750 mmHg 36%
    14:00 +20°C° 0 mm 6 mps 750 mmHg 33%
    15:00 +19°C° 0 mm 5 mps 749 mmHg 35%
    16:00 +19°C° 0 mm 5 mps 749 mmHg 38%
    17:00 +19°C° 0 mm 5 mps 749 mmHg 40%
    18:00 +17°C° 0 mm 4 mps 748 mmHg 45%
    19:00 +14°C° 0 mm 4 mps 748 mmHg 49%
    20:00 +12°C° 0 mm 3 mps 748 mmHg 54%
    21:00 +12°C° 0 mm 3 mps 748 mmHg 58%
    22:00 +12°C° 0 mm 3 mps 748 mmHg 62%
    23:00 +12°C° 0 mm 4 mps 748 mmHg 66%

    10 Abril, Viernes

    Tiempo Temperatura Precipitaciones Viento Presión Humedad
    00:00 +11°C° 0.1 mm 3 mps 748 mmHg 72%
    01:00 +10°C° 0.1 mm 3 mps 748 mmHg 78%
    02:00 +10°C° 0.1 mm 3 mps 748 mmHg 84%
    03:00 +9°C° 0.3 mm 3 mps 748 mmHg 84%
    04:00 +9°C° 0.3 mm 3 mps 748 mmHg 83%
    05:00 +7°C° 0.3 mm 4 mps 749 mmHg 82%
    06:00 +7°C° 0 mm 4 mps 749 mmHg 78%
    07:00 +7°C° 0 mm 5 mps 749 mmHg 73%
    08:00 +6°C° 0 mm 5 mps 750 mmHg 68%
    09:00 +7°C° 0 mm 5 mps 750 mmHg 66%
    10:00 +7°C° 0 mm 6 mps 751 mmHg 64%
    11:00 +8°C° 0 mm 6 mps 751 mmHg 61%
    12:00 +9°C° 0 mm 5 mps 751 mmHg 54%
    13:00 +10°C° 0 mm 5 mps 752 mmHg 47%
    14:00 +10°C° 0 mm 5 mps 752 mmHg 41%
    15:00 +10°C° 0 mm 5 mps 752 mmHg 39%
    16:00 +11°C° 0 mm 4 mps 752 mmHg 38%
    17:00 +11°C° 0 mm 4 mps 752 mmHg 37%
    18:00 +10°C° 0 mm 3 mps 752 mmHg 41%
    19:00 +8°C° 0 mm 2 mps 752 mmHg 46%
    20:00 +7°C° 0 mm 2 mps 752 mmHg 51%
    21:00 +6°C° 0 mm 2 mps 752 mmHg 51%
    22:00 +7°C° 0 mm 1 mps 753 mmHg 51%
    23:00 +7°C° 0 mm 1 mps 753 mmHg 51%

    11 Abril, Sábado

    Tiempo Temperatura Precipitaciones Viento Presión Humedad
    00:00 +5°C° 0 mm 2 mps 753 mmHg 53%
    01:00 +5°C° 0 mm 2 mps 753 mmHg 55%
    02:00 +5°C° 0 mm 2 mps 753 mmHg 57%
    03:00 +4°C° 0 mm 2 mps 753 mmHg 59%
    04:00 +4°C° 0 mm 2 mps 753 mmHg 60%
    05:00 +4°C° 0 mm 2 mps 753 mmHg 62%
    06:00 +5°C° 0 mm 2 mps 753 mmHg 59%
    07:00 +6°C° 0 mm 2 mps 753 mmHg 57%
    08:00 +7°C° 0 mm 3 mps 753 mmHg 54%
    09:00 +9°C° 0 mm 3 mps 753 mmHg 52%
    10:00 +10°C° 0 mm 3 mps 753 mmHg 49%
    11:00 +12°C° 0 mm 3 mps 753 mmHg 46%
    12:00 +13°C° 0 mm 3 mps 753 mmHg 44%
    13:00 +13°C° 0 mm 3 mps 753 mmHg 42%
    14:00 +14°C° 0 mm 3 mps 753 mmHg 40%
    15:00 +14°C° 0 mm 3 mps 752 mmHg 42%
    16:00 +13°C° 0 mm 3 mps 752 mmHg 43%
    17:00 +13°C° 0 mm 3 mps 752 mmHg 44%
    18:00 +13°C° 0 mm 2 mps 752 mmHg 50%
    19:00 +10°C° 0 mm 2 mps 752 mmHg 57%
    20:00 +8°C° 0 mm 2 mps 753 mmHg 63%
    21:00 +8°C° 0 mm 2 mps 753 mmHg 64%
    22:00 +7°C° 0 mm 2 mps 753 mmHg 65%
    23:00 +7°C° 0 mm 2 mps 754 mmHg 65%
    Mostrar más